Flag for Finland Weather past 2 weeks in Tampere, Finland

Now
41 °F

Sunny.


Feels Like: 37 °F
Forecast: 34 / 47 °F
Wind: 6 mph from North

Location: Tampere / Pirkkala

Current Time: Apr 18, 2015 at 7:17:26 PM

Latest Report: Apr 18, 2015 at 6:50 PM


Visibility: 10 mi

Pressure: 29.98 "Hg

Humidity: 61%

Dew point: 28 °F

Location of TampereLocation

Historic Weather in Tampere — Graph

°F

Tampere temperature yesterday

Maximum temperature yesterday: 45 °F (at 4:20 PM)
Minimum temperature yesterday: 34 °F (at 12:50 AM)
Average temperature yesterday: 38 °F

Past Weeks' High & Low Weather Summary

 TemperatureHumidityPressure
High59 °F (Apr 12, 12:20 PM)100% (Apr 4, 5:20 AM)30.30 "Hg (Apr 4, 5:20 AM)
Low23 °F (Apr 6, 5:50 AM)36% (Apr 11, 4:20 PM)29.21 "Hg (Apr 16, 5:50 AM)
Average39 °F76%29.79 "Hg
* Reported Apr 3 6:20 PM — Apr 18 6:20 PM, Tampere, Weather by CustomWeather, © 2015

Note: Actual official high and low records may vary slightly from our data, if they occured in-between our weather recording intervals... More about our weather records

Advertising

Tampere weather history for previous 24 hours

 ConditionsComfort  
Time TempWeatherWind HumidityBarometerVisibility
6:20 PM
Sat, Apr 18
41 °FPartly sunny.6 mph61%29.98 "HgN/A
5:50 PM41 °FOvercast.7 mph61%29.98 "HgN/A
5:20 PM41 °FPartly sunny.8 mph61%29.98 "HgN/A
4:50 PM41 °FMostly cloudy.6 mph61%29.98 "HgN/A
4:20 PM39 °FBroken clouds.5 mph70%29.98 "HgN/A
3:50 PM39 °FCloudy.2 mph70%29.98 "HgN/A
3:20 PM39 °FPartly sunny.5 mph65%30.01 "HgN/A
2:50 PM39 °FMostly cloudy.5 mph65%30.01 "HgN/A
2:20 PM39 °FPartly sunny.6 mph65%30.01 "HgN/A
1:50 PM39 °FMostly cloudy.6 mph61%30.01 "HgN/A
1:20 PM39 °FBroken clouds.6 mph65%30.01 "HgN/A
12:50 PM39 °FMore clouds than sun.7 mph65%30.01 "HgN/A
12:20 PM39 °FPartly sunny.10 mph61%30.01 "HgN/A
11:50 AM39 °FBroken clouds.7 mph65%30.01 "HgN/A
11:20 AM37 °FBroken clouds.9 mph70%30.01 "HgN/A
10:50 AM37 °FOvercast.8 mph75%30.01 "HgN/A
10:20 AM36 °FPartly sunny.7 mph81%30.01 "HgN/A
9:50 AM36 °FOvercast.7 mph81%30.01 "HgN/A
9:20 AM34 °FPartly sunny.5 mph87%30.04 "HgN/A
8:50 AM34 °FOvercast.5 mph87%30.01 "HgN/A
8:20 AM32 °FPartly sunny.5 mph93%30.01 "HgN/A
7:50 AM32 °FPartly sunny.3 mph93%30.01 "HgN/A
7:20 AM30 °FPartly sunny.3 mph100%30.01 "HgN/A
6:50 AM30 °FPassing clouds.3 mph93%30.04 "HgN/A
6:20 AM30 °FClear.3 mph93%30.01 "Hg10 mi
5:50 AM30 °FClear.3 mph93%30.01 "Hg10 mi
5:20 AM30 °FClear.2 mph93%30.01 "Hg10 mi
4:50 AM32 °FClear.5 mph87%30.01 "Hg10 mi
4:20 AM32 °FClear.6 mph87%30.01 "Hg10 mi
3:50 AM32 °FClear.6 mph93%30.01 "Hg10 mi
3:20 AM34 °FClear.5 mph87%30.01 "Hg10 mi
2:50 AM34 °FClear.5 mph87%30.01 "Hg10 mi
2:20 AM36 °FPassing clouds.5 mph81%30.01 "HgN/A
1:50 AM37 °FClear.3 mph75%30.01 "Hg10 mi
1:20 AM37 °FPassing clouds.5 mph75%30.01 "HgN/A
12:50 AM37 °FClear.3 mph81%30.01 "Hg10 mi
12:20 AM37 °FClear.3 mph75%30.01 "Hg10 mi
11:50 PM
Fri, Apr 17
37 °FClear.6 mph81%30.01 "Hg10 mi
11:20 PM39 °FClear.5 mph75%29.98 "Hg10 mi
10:50 PM39 °FClear.3 mph75%29.98 "Hg10 mi
10:20 PM39 °FClear.5 mph70%29.98 "Hg10 mi
9:50 PM41 °FSunny.3 mph66%29.98 "Hg10 mi
9:20 PM41 °FSunny.3 mph66%29.98 "Hg10 mi
8:50 PM43 °FSunny.3 mph61%29.95 "Hg10 mi
8:20 PM43 °FSunny.6 mph61%29.95 "Hg10 mi
7:50 PM43 °FSunny.8 mph61%29.95 "Hg10 mi
7:20 PM43 °FSunny.7 mph57%29.95 "Hg10 mi
Weather by CustomWeather, © 2015

See weather overviewHow to use our weather pages